Weather History for Gainesville, GA

Change the Weather History Date:

Sunday, December 9, 2012

  Actual Average Record
Temperature  
Mean Temperature 58 °F 45 °F  
Max Temperature 66 °F 53 °F 75 °F (2007)
Min Temperature 51 °F 37 °F 17 °F (1968)
Degree Days  
Heating Degree Days 6 20  
Month to date heating degree days 171  
Since 1 July heating degree days 706  
Growing Degree Days 8 (Base 50)    
Moisture  
Dew Point 54 °F    
Average Humidity 91    
Maximum Humidity 100    
Minimum Humidity 64    
Precipitation  
Precipitation 0.01 in 0.16 in 1.91 in (2004)
Month to date precipitation 1.53  
Year to date precipitation 51.01  
Sea Level Pressure  
Sea Level Pressure 30.07 in    
Wind  
Wind Speed 1 mph (SE)    
Max Wind Speed 7 mph    
Max Gust Speed -    
Visibility 4 miles    
Events Fog    
T = Trace of Precipitation, MM = Missing Value Source: NWS Daily Summary

Daily Weather History Graph

Daily Weather History Graph

Search for Another Location

Airport:

Trip Planner

Search our weather history database for the weather conditions in past years. The results will help you decide how hot, cold, wet, or windy it might be!

Date:

Astronomy

Dec. 09, 2012 Rise Set
Actual Time 7:30 AM EST 5:25 PM EST
Civil Twilight 7:02 AM EST 5:53 PM EST
Nautical Twilight 6:31 AM EST 6:24 PM EST
Astronomical Twilight 6:00 AM EST 6:55 PM EST
Moon 3:09 AM EST (12/9) 2:25 PM EST (12/9)
Length of Visible Light 10h 50m
Length of Day
9h 55m
Waning Crescent, 19% of the Moon is Illuminated
Dec 9
Waning Crescent
Dec 13
New
Dec 20
First Quarter
Dec 28
Full
Jan 4
Last Quarter

Hourly Weather History & Observations

Time (EST) Temp. Dew Point Humidity Pressure Visibility Wind Dir Wind Speed Gust Speed Precip Events Conditions
12:10 AM 55.4 °F 55.4 °F 100% 30.08 in 2.5 mi Calm Calm - N/A   Overcast
12:53 AM 55.9 °F 54.0 °F 93% 30.06 in 2.5 mi Calm Calm - N/A   Overcast
1:04 AM 55.4 °F 53.6 °F 94% 30.08 in 2.0 mi ENE 3.5 mph - N/A   Scattered Clouds
1:21 AM 53.6 °F 53.6 °F 100% 30.08 in 1.5 mi Calm Calm - N/A   Partly Cloudy
1:26 AM 53.6 °F 53.6 °F 100% 30.08 in 1.0 mi North 3.5 mph - N/A   Scattered Clouds
1:33 AM 53.6 °F 53.6 °F 100% 30.08 in 0.8 mi North 3.5 mph - N/A   Mist
1:53 AM 54.0 °F 53.1 °F 97% 30.06 in 0.2 mi Calm Calm - N/A Fog Fog
2:18 AM 53.6 °F 53.6 °F 100% 30.07 in 0.2 mi Calm Calm - N/A Fog Fog
2:31 AM 53.6 °F 53.6 °F 100% 30.07 in 1.2 mi Calm Calm - 0.01 in   Mostly Cloudy
2:34 AM 53.6 °F 53.6 °F 100% 30.07 in 2.5 mi Calm Calm - 0.01 in   Mostly Cloudy
2:43 AM 53.6 °F 53.6 °F 100% 30.07 in 4.0 mi ESE 3.5 mph - 0.01 in   Mostly Cloudy
2:53 AM 54.0 °F 54.0 °F 100% 30.05 in 4.0 mi Calm Calm - 0.01 in   Mostly Cloudy
3:09 AM 53.6 °F 51.8 °F 94% 30.07 in 2.0 mi Calm Calm - N/A   Mostly Cloudy
3:12 AM 53.6 °F 51.8 °F 94% 30.07 in 1.5 mi North 3.5 mph - N/A   Mostly Cloudy
3:43 AM 53.6 °F 51.8 °F 94% 30.07 in 0.8 mi Calm Calm - N/A   Mostly Cloudy
3:53 AM 53.1 °F 52.0 °F 96% 30.06 in 1.2 mi Calm Calm - N/A   Mostly Cloudy
3:59 AM 53.6 °F 51.8 °F 94% 30.07 in 2.0 mi Calm Calm - N/A   Mostly Cloudy
4:18 AM 53.6 °F 53.6 °F 100% 30.07 in 2.5 mi ENE 3.5 mph - N/A   Mostly Cloudy
4:25 AM 53.6 °F 51.8 °F 94% 30.07 in 3.0 mi Calm Calm - N/A   Mostly Cloudy
4:37 AM 53.6 °F 51.8 °F 94% 30.06 in 2.0 mi Calm Calm - N/A   Mostly Cloudy
4:42 AM 53.6 °F 51.8 °F 94% 30.06 in 1.5 mi Calm Calm - N/A   Scattered Clouds
4:46 AM 51.8 °F 51.8 °F 100% 30.06 in 0.8 mi Calm Calm - N/A   Scattered Clouds
4:53 AM 53.1 °F 52.0 °F 96% 30.05 in 0.8 mi Calm Calm - N/A   Partly Cloudy
4:57 AM 53.6 °F 51.8 °F 94% 30.06 in 1.2 mi Calm Calm - N/A   Partly Cloudy
5:04 AM 53.6 °F 51.8 °F 94% 30.07 in 2.0 mi Calm Calm - N/A   Partly Cloudy
5:08 AM 51.8 °F 51.8 °F 100% 30.07 in 1.5 mi Calm Calm - N/A   Clear
5:16 AM 53.6 °F 51.8 °F 94% 30.07 in 1.0 mi Calm Calm - N/A   Clear
5:20 AM 51.8 °F 51.8 °F 100% 30.07 in 1.8 mi Calm Calm - N/A   Partly Cloudy
5:29 AM 53.6 °F 51.8 °F 94% 30.08 in 2.0 mi Calm Calm - N/A   Mostly Cloudy
5:33 AM 53.6 °F 51.8 °F 94% 30.08 in 1.5 mi Calm Calm - N/A   Mostly Cloudy
5:47 AM 53.6 °F 51.8 °F 94% 30.08 in 2.0 mi Calm Calm - N/A   Overcast
5:53 AM 54.0 °F 53.1 °F 97% 30.07 in 2.5 mi East 3.5 mph - N/A   Overcast
6:02 AM 55.4 °F 53.6 °F 94% 30.08 in 3.0 mi East 3.5 mph - N/A   Overcast
6:11 AM 55.4 °F 53.6 °F 94% 30.08 in 5.0 mi ENE 6.9 mph - N/A   Overcast
6:31 AM 55.4 °F 53.6 °F 94% 30.09 in 4.0 mi ESE 4.6 mph - N/A   Overcast
6:53 AM 55.0 °F 54.0 °F 96% 30.09 in 4.0 mi ESE 3.5 mph - N/A   Overcast
7:15 AM 55.4 °F 53.6 °F 94% 30.10 in 3.0 mi East 3.5 mph - N/A   Overcast
7:53 AM 55.9 °F 54.0 °F 93% 30.09 in 3.0 mi Calm Calm - N/A   Overcast
8:49 AM 55.4 °F 53.6 °F 94% 30.12 in 2.0 mi ESE 3.5 mph - N/A   Overcast
8:53 AM 55.9 °F 54.0 °F 93% 30.10 in 2.0 mi Calm Calm - N/A   Overcast
9:06 AM 55.4 °F 55.4 °F 100% 30.12 in 2.5 mi Calm Calm - N/A   Overcast
9:15 AM 55.4 °F 55.4 °F 100% 30.12 in 2.5 mi ESE 3.5 mph - N/A   Overcast
9:53 AM 55.9 °F 55.0 °F 97% 30.11 in 2.5 mi Calm Calm - N/A   Overcast
10:04 AM 57.2 °F 55.4 °F 94% 30.13 in 2.0 mi SE 3.5 mph - N/A   Overcast
10:12 AM 57.2 °F 55.4 °F 94% 30.13 in 1.5 mi Calm Calm - N/A   Overcast
10:17 AM 57.2 °F 55.4 °F 94% 30.13 in 0.8 mi Calm Calm - N/A   Overcast
10:24 AM 57.2 °F 55.4 °F 94% 30.13 in 0.8 mi Calm Calm - N/A   Overcast
10:35 AM 57.2 °F 57.2 °F 100% 30.13 in 1.2 mi Calm Calm - N/A   Overcast
10:53 AM 57.9 °F 55.9 °F 93% 30.11 in 1.8 mi South 3.5 mph - N/A   Overcast
11:13 AM 57.2 °F 57.2 °F 100% 30.12 in 1.2 mi SE 3.5 mph - N/A   Overcast
11:29 AM 59.0 °F 57.2 °F 94% 30.11 in 2.0 mi Calm Calm - N/A   Overcast
11:34 AM 59.0 °F 57.2 °F 94% 30.11 in 3.0 mi Calm Calm - N/A   Overcast
11:53 AM 60.1 °F 57.0 °F 90% 30.09 in 5.0 mi WSW 5.8 mph - N/A   Overcast
12:08 PM 60.8 °F 57.2 °F 88% 30.10 in 7.0 mi South 4.6 mph - N/A   Overcast
12:22 PM 62.6 °F 57.2 °F 82% 30.09 in 9.0 mi SSW 3.5 mph - N/A   Mostly Cloudy
12:32 PM 62.6 °F 57.2 °F 82% 30.09 in 9.0 mi SSW 3.5 mph - N/A   Mostly Cloudy
12:53 PM 63.0 °F 57.0 °F 81% 30.06 in 10.0 mi South 4.6 mph - N/A   Mostly Cloudy
1:20 PM 64.4 °F 57.2 °F 77% 30.07 in 10.0 mi South 4.6 mph - N/A   Overcast
1:28 PM 64.4 °F 57.2 °F 77% 30.06 in 10.0 mi South 5.8 mph - N/A   Mostly Cloudy
1:53 PM 64.9 °F 57.0 °F 75% 30.04 in 10.0 mi South 4.6 mph - N/A   Overcast
2:19 PM 66.2 °F 55.4 °F 68% 30.05 in 10.0 mi SW 3.5 mph - N/A   Overcast
2:35 PM 66.2 °F 55.4 °F 68% 30.04 in 10.0 mi WSW 5.8 mph - N/A   Mostly Cloudy
2:53 PM 66.9 °F 55.0 °F 66% 30.02 in 10.0 mi Calm Calm - N/A   Mostly Cloudy
3:53 PM 66.0 °F 55.0 °F 68% 30.03 in 10.0 mi SW 3.5 mph - N/A   Overcast
4:11 PM 66.2 °F 53.6 °F 64% 30.05 in 10.0 mi SSW 4.6 mph - N/A   Overcast
4:53 PM 66.0 °F 54.0 °F 65% 30.03 in 10.0 mi Calm Calm - N/A   Overcast
5:53 PM 64.9 °F 54.0 °F 68% 30.03 in 10.0 mi Calm Calm - N/A   Overcast
6:53 PM 64.0 °F 55.0 °F 73% 30.02 in 10.0 mi Calm Calm - N/A   Overcast
7:53 PM 62.1 °F 55.0 °F 78% 30.01 in 10.0 mi SE 3.5 mph - N/A   Mostly Cloudy
8:53 PM 61.0 °F 54.0 °F 78% 30.01 in 10.0 mi SSE 3.5 mph - N/A   Partly Cloudy
9:53 PM 60.1 °F 55.0 °F 83% 30.01 in 10.0 mi South 4.6 mph - N/A   Clear
10:53 PM 57.9 °F 55.0 °F 90% 30.00 in 10.0 mi SSE 3.5 mph - N/A   Clear
11:53 PM 57.0 °F 55.0 °F 93% 29.98 in 9.0 mi SE 3.5 mph - N/A   Clear